Location: Beugnon
(47.6222°N, 3.7850°E)
Time: 17:29:54
(UTC+00:00)

Cosmos 1697 Rocket - Pass Details

Date: 09 April 2020
Orbit: 831 x 845 km, 71.0° (Epoch: 28 May)

Event Time Altitude Azimuth Distance (km) Brightness Sun altitude
Rises 19:22:09 0° 338° (NNW) 3,411 6.6 -9.7°
Reaches altitude 10° 19:25:27 10° 357° (N) 2,475 5.5 -10.2°
Maximum altitude 19:29:15 18° 39° (NE) 1,966 4.5 -10.8°
Drops below altitude 10° 19:33:03 10° 82° (E) 2,469 4.6 -11.4°
Enters shadow 19:33:10 10° 83° (E) 2,498 4.6 -11.4°
